Location: Gerlach
(40.6516°N, 119.3568°W)
Time: 00:26:46
(UTC-08:00)

Tiangong - Visible Passes

Search period start: 29 November 2023 00:00
Search period end: 09 December 2023 00:00
Orbit: 374 x 384 km, 41.5° (Epoch: 28 November)

Date Brightness Start Highest point End Pass type
(mag) Time Alt. Az. Time Alt. Az. Time Alt. Az.
29 Nov -2.2 17:13:54 10° W 17:17:04 85° N 17:20:09 10° E visible
29 Nov 0.4 18:50:46 10° W 18:52:17 22° WSW 18:52:17 22° WSW visible
30 Nov -1.5 17:49:06 10° W 17:52:11 51° SSW 17:53:59 21° SE visible
01 Dec 0.1 18:24:34 10° W 18:27:00 21° SSW 18:27:54 18° S visible
02 Dec -0.5 17:22:32 10° W 17:25:25 34° SSW 17:28:18 10° SE visible
03 Dec 0.9 17:58:25 10° WSW 17:59:57 13° SW 18:01:29 10° S visible
